Погода в Барагаше

Россия / Республика Алтай     51°16′20″N   85°11′41″E
темп.,
°C
ветер,
м/с
пор.,
м/с
влажн.,
%
обл.,
%
осадки,
мм/ч
давл.,
гПа
погр.,
м
13 мая, чт
чт1301:00+2ююз119497 0.3 101812
04:00+1ююз229449 0.0 101825
07:00+3ююз23915 0.0 101886
10:00+9юз115670 0.5 10151008
13:00+11ссз114875 1.5 10131703
16:00+11всв114880 0.9 10121611
19:00+8ссз227298 2.4 1013343
22:00+5с229299 1.4 1015139
14 мая, пт
пт1401:00+5всв1194100 1.7 101414
04:00+3ссв1198100 0.1 101418
07:00+5с1296100 0.1 1015245
10:00+5с1292100 0.4 1017474
13:00+5сз2290100 0.9 1019548
16:00+5сз238899 0.2 1020619
19:00+6сз1287100 0.7 1022315
22:00+4ссз2295100 0.8 102522
15 мая, сб
сб1501:00+3ссз0192100 0.9 102610
04:00+2ююв0091100 0.0 102610
07:00+3ю1288100 0.0 102763
10:00+8ююв0062100 0.0 1026653
13:00+13ссв12445 0.0 10241201
16:00+14ссв22455 0.0 10221481
19:00+13св22515 0.0 10221270
22:00+8вюв11730 0.0 102310
16 мая, вс
вс1601:00+7ю11760 0.0 102310
04:00+6ю21790 0.0 102211
07:00+7ю23765 0.0 102270
10:00+14зюз11492 0.0 1020667
13:00+17зсз22375 0.0 10181823
16:00+17ссз3342100 0.0 10172009
19:00+14зюз236796 0.8 101895
22:00+9юз2289100 1.6 101936
17 мая, пн
пн1701:00+9ю2382100 2.6 101845
04:00+8юз228557 0.0 101813
07:00+9ююз22825 0.0 101865
10:00+15зсз13572 0.0 10171093
13:00+18ссз334343 0.1 10162261
16:00+17ссв334489 0.0 10161773
19:00+16с23525 0.0 10161167
22:00+10ссв11825 0.0 101810